Miscellaneous Local Product
Issued by NWS Hastings, NE

Home | Current Version | Previous Version | Graphics & Text | Print | Product List | Glossary On
Versions: 1 2 3 4 5 6 7 8 9 10 11 12 13 14 15 16 17 18 19 20 21 22 23 24 25 26 27 28 29 30 31 32 33 34 35 36 37 38 39 40 41 42 43 44 45 46 47 48 49 50
000
AXUS43 KGID 201502
MISGRI

GID CWA HOURLY WEATHER ROUNDUP
NATIONAL WEATHER SERVICE HASTINGS NE
1000 AM CDT WED MAY 20 2015

NOTE: "FAIR" INDICATES FEW OR NO CLOUDS BELOW 12,000 FEET WITH NO
SIGNIFICANT WEATHER AND/OR OBSTRUCTIONS TO VISIBILITY.

...SOUTH CENTRAL NEBRASKA...

CITY           SKY/WX    TMP DP  RH WIND       PRES   REMARKS
GRAND ISLAND   CLOUDY    45  42  89 N13       30.26R
HASTINGS       LGT RAIN  45  43  93 NE13      30.25R FOG
KEARNEY        CLOUDY    45  41  87 N14       30.26R
ORD            CLOUDY    43  40  89 N10       30.26R
YORK           LGT RAIN  45  45 100 N10       30.24R
AURORA         CLOUDY    45  45 100 NE10      30.25R FOG
LEXINGTON      CLOUDY    44  42  92 N9        30.27R
HOLDREGE       DRIZZLE   43  41  93 N9        30.25R
HEBRON         CLOUDY    46  44  90 N9        30.23R FOG

...NEBRASKA PANHANDLE...

CITY           SKY/WX    TMP DP  RH WIND       PRES   REMARKS
CHADRON        CLOUDY    34  33  96 W3        30.33R
ALLIANCE       CLOUDY    34  32  92 N8        30.29R WCI  27
SCOTTSBLUFF    CLOUDY    38  33  82 NE8       30.30R WCI  32
SIDNEY         CLOUDY    36  32  85 N9        30.29R WCI  29

...WESTERN AND NORTH CENTRAL NEBRASKA...

CITY           SKY/WX    TMP DP  RH WIND       PRES   REMARKS
VALENTINE      CLOUDY    41  38  89 N8        30.31R
AINSWORTH      CLOUDY    40  39  95 N6        30.30R
ONEILL         LGT RAIN  43  41  95 N9        30.30R
BROKEN BOW     CLOUDY    44  40  85 N12       30.27R
IMPERIAL       CLOUDY    41  35  79 N7        30.29R
NORTH PLATTE   CLOUDY    41  37  86 N8        30.29R
MCCOOK         CLOUDY    43  39  86 N9        30.27R

...EASTERN NEBRASKA...

CITY           SKY/WX    TMP DP  RH WIND       PRES   REMARKS
NORFOLK        LGT RAIN  45  42  89 NE14      30.27R
SO SIOUX CITY  LGT RAIN  46  40  79 NE14      30.28R
TEKAMAH        CLOUDY    49  43  80 N14       30.26R
COLUMBUS       CLOUDY    45  37  76 NE8       30.28R
ALBION         CLOUDY    44  42  91 N7        30.27R
OMAHA EPPLEY   CLOUDY    49  43  80 N9        30.23R
OFFUTT AFB     PTSUNNY   48  45  87 N7        30.22R FOG
MILLARD        CLOUDY    47  44  91 N3        30.24R FOG
LINCOLN        CLOUDY    48  44  86 NE15      30.25R FOG
NEBRASKA CITY  LGT RAIN  47  46  97 NE10      30.20R
BEATRICE       CLOUDY    47  46  95 N9        30.21R FOG
FALLS CITY     CLOUDY    49  46  90 NE10      30.17R

...NORTHERN KANSAS...

CITY           SKY/WX    TMP DP  RH WIND       PRES   REMARKS
GOODLAND       CLOUDY    41  36  82 N9        30.27S
HILL CITY      CLOUDY    46  42  86 N10       30.26R
NORTON         CLOUDY    45  39  81 NW8       30.25R
PHILLIPSBURG   CLOUDY    48  45  87 N8        30.25S
SMITH CENTER   CLOUDY    46  43  87 N10       30.25R
HAYS           CLOUDY    46  39  76 N14       30.23R
RUSSELL        CLOUDY    48  45  89 N13       30.21R
CONCORDIA      CLOUDY    47  45  93 N9        30.21R FOG
SALINA         CLOUDY    51  46  83 N15       30.18R
TOPEKA         CLOUDY    50  48  93 N8        30.13R



USA.gov is the U.S. government's official web portal to all federal, state and local government web resources and services.